Weather History for Lossiemouth, United Kingdom

Change the Weather History Date:

Monday, February 18, 2013

  Actual Average Record
Temperature  
Mean Temperature 35 °F -  
Max Temperature 46 °F 44 °F 55 °F (1998)
Min Temperature 24 °F 34 °F 24 °F (2013)
Degree Days  
Heating Degree Days 30    
Moisture  
Dew Point 29 °F    
Average Humidity 84    
Maximum Humidity 94    
Minimum Humidity 54    
Precipitation  
Precipitation 0.01 in - - ()
Sea Level Pressure  
Sea Level Pressure 30.06 in    
Wind  
Wind Speed 3 mph ()    
Max Wind Speed 6 mph    
Max Gust Speed -    
Visibility 12.1 miles    
Events Fog    
Averages and records for this station are not official NWS values.
T = Trace of Precipitation, MM = Missing Value Source: Averaged Metar Reports

Daily Weather History Graph

Daily Weather History Graph

Search for Another Location

Airport:

Trip Planner

Search our weather history database for the weather conditions in past years. The results will help you decide how hot, cold, wet, or windy it might be!

Date:

Astronomy

Feb. 18, 2013 Rise Set
Actual Time 7:35 AM GMT 5:19 PM GMT
Civil Twilight 6:55 AM GMT 5:59 PM GMT
Nautical Twilight 6:10 AM GMT 6:45 PM GMT
Astronomical Twilight 5:25 AM GMT 7:30 PM GMT
Moon 10:17 AM GMT (2/18) 2:38 AM GMT (2/18)
Length of Visible Light 11h 04m
Length of Day
9h 43m
First Quarter, 56% of the Moon is Illuminated
Feb 18
First Quarter
Feb 25
Full
Mar 4
Last Quarter
Mar 11
New
Mar 19
First Quarter

Hourly Weather History & Observations

Time (GMT) Temp. Windchill Dew Point Humidity Pressure Visibility Wind Dir Wind Speed Gust Speed Precip Events Conditions
12:50 AM 33.8 °F 30.8 °F 28.4 °F 81% 30.04 in - South 3.5 mph - N/A   Clear
1:50 AM 32.0 °F 27.5 °F 28.4 °F 87% 30.04 in - South 4.6 mph - N/A   Clear
2:50 AM 29 °F - 26 °F 84% 30.04 in 16 mi SE 3.5 mph - -   Clear
2:50 AM 30.2 °F 26.7 °F 26.6 °F 86% 30.04 in - SE 3.5 mph - N/A   Clear
3:50 AM 28.4 °F - 24.8 °F 86% 30.04 in - SW 1.2 mph - N/A   Clear
4:50 AM 28.4 °F - 24.8 °F 86% 30.04 in - East 1.2 mph - N/A   Clear
5:50 AM 25 °F - 23 °F 90% 30.06 in 12 mi South 1.2 mph - -   Clear
5:50 AM 24.8 °F - 23.0 °F 93% 30.04 in - South 1.2 mph - N/A   Clear
6:50 AM 26.6 °F 22.6 °F 24.8 °F 93% 30.04 in 6.2 mi SW 3.5 mph - N/A Fog Shallow Fog
7:50 AM 26.6 °F 22.6 °F 24.8 °F 93% 30.06 in - WSW 3.5 mph - N/A   Clear
8:50 AM 27 °F - 25 °F 91% 30.09 in 25 mi SSW 2.3 mph - -   Scattered Clouds
8:50 AM 26.6 °F - 24.8 °F 93% 30.06 in - SSW 2.3 mph - N/A   Clear
9:50 AM 33.8 °F - 28.4 °F 81% 30.06 in - Calm Calm - N/A   Clear
10:50 AM 39.2 °F - 32.0 °F 75% 30.06 in - SW 2.3 mph - N/A   Clear
11:50 AM 45 °F - 34 °F 54% 30.09 in 22 mi East 2.3 mph - -   Clear
11:50 AM 44.6 °F - 33.8 °F 66% 30.06 in - East 2.3 mph - N/A   Clear
12:50 PM 41.0 °F 37.1 °F 33.8 °F 76% 30.06 in - NNE 5.8 mph - N/A   Clear
1:50 PM 42.8 °F 40.1 °F 33.8 °F 70% 30.06 in - NNE 4.6 mph - N/A   Clear
2:50 PM 43 °F - 34 °F 60% 30.06 in 28 mi NE 4.6 mph - -   Clear
2:50 PM 42.8 °F 40.1 °F 33.8 °F 70% 30.04 in - NE 4.6 mph - N/A   Clear
3:50 PM 41.0 °F 39.0 °F 33.8 °F 76% 30.04 in - NE 3.5 mph - N/A   Clear
4:50 PM 41.0 °F 38.0 °F 33.8 °F 76% 30.06 in - East 4.6 mph - N/A   Clear
5:50 PM 36 °F - 32 °F 81% 30.08 in 22 mi ESE 4.6 mph - -   Clear
5:50 PM 35.6 °F 31.7 °F 32.0 °F 87% 30.06 in - ESE 4.6 mph - N/A   Clear
6:50 PM 32.0 °F - 30.2 °F 93% 30.06 in - SSE 1.2 mph - N/A   Clear
7:50 PM 30.2 °F - 28.4 °F 93% 30.06 in - South 1.2 mph - N/A   Clear
8:50 PM 29 °F - 27 °F 87% 30.11 in 16 mi West 3.5 mph - -  
8:50 PM 28.4 °F 24.6 °F 26.6 °F 93% 30.09 in - West 3.5 mph - N/A   Clear
9:50 PM 28.4 °F - 26.6 °F 93% 30.09 in 6.2 mi SW 2.3 mph - N/A Fog Shallow Fog
10:50 PM 28.4 °F 23.3 °F 26.6 °F 93% 30.09 in - SW 4.6 mph - N/A   Clear
11:50 PM 29 °F - 28 °F 94% 30.13 in 16 mi WSW 5.8 mph - -  
11:50 PM 30.2 °F 24.3 °F 28.4 °F 93% 30.12 in - WSW 5.8 mph - N/A   Clear